WetterOnline ( https://www.wetteronline.at )

Wetter aktuell Frankfurt am Main

Aktuelles Wetter: Offenbach (119m)

6-stündlich | Neueste Meldungen
Ortszeit Temperatur Wetter
So, 04.12. 13:00 2.7° C bedeckt
So, 04.12. 7:00 1.7° C bewölkt
So, 04.12. 1:00 2.1° C bedeckt
Sa, 03.12. 19:00 2.2° C bedeckt
Sa, 03.12. 13:00 2.3° C bedeckt
Sa, 03.12. 7:00 1.1° C bedeckt
Sa, 03.12. 1:00 0.6° C leichter Schneefall
Fr, 02.12. 19:00 1.4° C leichter Regen
Ortszeit Temperatur Wetter
So, 04.12. 13:00 2.7° C bedeckt
So, 04.12. 12:50 2.7° C bedeckt
So, 04.12. 12:40 2.7° C bedeckt
So, 04.12. 12:30 2.6° C bedeckt
So, 04.12. 12:20 2.6° C bedeckt
So, 04.12. 12:10 2.5° C bedeckt
So, 04.12. 12:00 2.4° C bewölkt
So, 04.12. 11:30 2.2° C bewölkt
So, 04.12. 11:00 2.2° C bedeckt
So, 04.12. 10:30 1.7° C bedeckt
So, 04.12. 10:00 1.5° C bedeckt
Ortszeit Relative Feuchte Sichtweite
So, 04.12. 13:00 82% 20 km
So, 04.12. 7:00 83% 17 km
So, 04.12. 1:00 80% 27 km
Sa, 03.12. 19:00 84% 14 km
Sa, 03.12. 13:00 83% 16 km
Sa, 03.12. 7:00 86% 24 km
Sa, 03.12. 1:00 94% 5.0 km
Fr, 02.12. 19:00 90% 14 km
Ortszeit Relative Feuchte Sichtweite
So, 04.12. 13:00 82% 20 km
So, 04.12. 12:50 82% -
So, 04.12. 12:40 83% -
So, 04.12. 12:30 83% 19 km
So, 04.12. 12:20 83% -
So, 04.12. 12:10 84% -
So, 04.12. 12:00 84% 18 km
So, 04.12. 11:30 83% 19 km
So, 04.12. 11:00 84% 17 km
So, 04.12. 10:30 85% 16 km
So, 04.12. 10:00 84% 16 km
Ortszeit Niederschlagsmenge Niederschlagsart
So, 04.12. 13:00 0.1 l/m2 in 6 Std. Sprühregen
So, 04.12. 7:00 0.0 l/m2 in 12 Std. -
So, 04.12. 1:00 0.0 l/m2 in 6 Std. -
Sa, 03.12. 19:00 0.0 l/m2 in 12 Std. -
Sa, 03.12. 13:00 0.0 l/m2 in 6 Std. -
Sa, 03.12. 7:00 0.2 l/m2 in 12 Std. Schnee, Regen
Sa, 03.12. 1:00 0.2 l/m2 in 6 Std. Schnee, Regen
Fr, 02.12. 19:00 0.5 l/m2 in 12 Std. Schnee, Regen
Ortszeit Niederschlagsmenge Niederschlagsart
So, 04.12. 13:00 0.0 l/m2 in 1 Std. Sprühregen
So, 04.12. 12:50 keine Meldung -
So, 04.12. 12:40 keine Meldung -
So, 04.12. 12:30 0.0 l/m2 in 30 Min -
So, 04.12. 12:20 keine Meldung -
So, 04.12. 12:10 keine Meldung -
So, 04.12. 12:00 0.0 l/m2 in 1 Std. -
So, 04.12. 11:30 0.0 l/m2 in 30 Min -
So, 04.12. 11:00 0.0 l/m2 in 1 Std. -
So, 04.12. 10:30 0.0 l/m2 in 30 Min -
So, 04.12. 10:00 <0.05 l/m2 in 1 Std. Sprühregen
Ortszeit Stärke Spitze Richtung
km/h Bft. km/h Grad Sektor
So, 04.12. 13:00 11 2 25 20° N
So, 04.12. 7:00 7 2 22 20° N
So, 04.12. 1:00 11 2 22 50° NO
Sa, 03.12. 19:00 9 2 19 40° NO
Sa, 03.12. 13:00 9 2 19 30° NO
Sa, 03.12. 7:00 7 2 18 20° N
Sa, 03.12. 1:00 7 2 20 30° NO
Fr, 02.12. 19:00 9 2 24 30° NO
Ortszeit Stärke Spitze Richtung
km/h Bft. km/h Grad Sektor
So, 04.12. 13:00 11 2 22 20° N
So, 04.12. 12:50 11 2 - 20° N
So, 04.12. 12:40 9 2 - 30° NO
So, 04.12. 12:30 11 2 18 20° N
So, 04.12. 12:20 11 2 - 20° N
So, 04.12. 12:10 9 2 - 20° N
So, 04.12. 12:00 11 2 25 20° N
So, 04.12. 11:30 13 3 24 30° NO
So, 04.12. 11:00 9 2 19 20° N
So, 04.12. 10:30 9 2 19 20° N
So, 04.12. 10:00 9 2 19 10° N
Ortszeit Untergrenze Bedeckung Gattung
total tief tief mittel hoch
So, 04.12. 13:00 330 m 8/8 8/8 - - -
So, 04.12. 7:00 450 m 7/8 7/8 - - -
So, 04.12. 1:00 450 m 8/8 8/8 - - -
Sa, 03.12. 19:00 690 m 8/8 8/8 - - -
Sa, 03.12. 13:00 420 m 8/8 8/8 - - -
Sa, 03.12. 7:00 450 m 8/8 8/8 - - -
Sa, 03.12. 1:00 540 m 7/8 7/8 - - -
Fr, 02.12. 19:00 270 m 8/8 8/8 - - -
Ortszeit Bedeckungsgrad in Achtel und Wolkenuntergrenze
So, 04.12. 13:00 8(330m)
So, 04.12. 12:50 8(330m)
So, 04.12. 12:40 8
So, 04.12. 12:30 8(300m)
So, 04.12. 12:20 8(300m)
So, 04.12. 12:10 8
So, 04.12. 12:00 7(270m)
So, 04.12. 11:30 7(270m)
So, 04.12. 11:00 7(270m) 8(450m)
So, 04.12. 10:30 7(270m) 8(480m)
So, 04.12. 10:00 5(240m) 7(390m) 8(510m)
Ortszeit Luftdruck NN (hPa) Tendenz (hPa in 3 Std.)
So, 04.12. 13:00 1015 - 1,3
So, 04.12. 7:00 1016 - 0,5
So, 04.12. 1:00 1017 - 1,0
Sa, 03.12. 19:00 1018 - 0,3
Sa, 03.12. 13:00 1020 - 1,2
Sa, 03.12. 7:00 1021 - 0,4
Sa, 03.12. 1:00 1022 + 0,1
Fr, 02.12. 19:00 1021 + 0,7
Ortszeit Luftdruck NN (hPa) Tendenz (hPa in 3 Std.)
So, 04.12. 13:00 1015 - 1,3
So, 04.12. 12:50 1015 keine Meldung
So, 04.12. 12:40 1015 keine Meldung
So, 04.12. 12:30 1015 - 1,2
So, 04.12. 12:20 1015 keine Meldung
So, 04.12. 12:10 1016 keine Meldung
So, 04.12. 12:00 1016 - 0,3
So, 04.12. 11:30 1016 - 0,2
So, 04.12. 11:00 1016 - 0,2
So, 04.12. 10:30 1016 - 0,1
So, 04.12. 10:00 1016 + 0,2
Ortszeit Schneehöhe (cm)
So, 04.12. 13:00 0
So, 04.12. 7:00 0
So, 04.12. 1:00 0
Sa, 03.12. 19:00 0
Sa, 03.12. 13:00 0
Sa, 03.12. 7:00 0
Sa, 03.12. 1:00 0
Fr, 02.12. 19:00 0
Ortszeit Schneehöhe (cm)
So, 04.12. 13:00 0
So, 04.12. 12:50 0
So, 04.12. 12:40 0
So, 04.12. 12:30 0
So, 04.12. 12:20 0
So, 04.12. 12:10 0
So, 04.12. 12:00 0
So, 04.12. 11:30 0
So, 04.12. 11:00 0
So, 04.12. 10:30 0
So, 04.12. 10:00 0
Link zu dieser Seite / Seite empfehlen

Das Wetter in ...